This demonstration page uses our WeatherBlox Daily Observations layout. Learn more.

Left ArrowRight Arrow

31.84235, -102.49876

Hourly Observations for November 4, 2015

Temp ( °F °C ) Dew Point ( °F °C ) Humidity (%) Winds ( mph kmh ) Pressure ( in mb ) Visibility ( mi km ) Precip ( " mm )
12:53 am 00:53 Clear 63 17.2 57 13.9 81 81 S 10 17 29.83 1010 10 16 0.00 0.00
1:53 am 01:53 Clear 62 16.7 55 12.8 78 78 S 10 17 29.83 1010 10 16 0.00 0.00
2:53 am 02:53 Clear 62 16.7 54 12.2 75 75 SSE 14 22 29.82 1010 10 16 0.00 0.00
3:53 am 03:53 Clear 61 16.1 55 12.8 81 81 S 9 15 29.81 1010 10 16 0.00 0.00
4:53 am 04:53 Clear 59 15 55 12.8 87 87 S 8 13 29.83 1010 10 16 0.00 0.00
5:31 am 05:31 Mostly Cloudy 62 16.7 57 13.9 84 84 S 10 17 29.85 1011 10 16 0.00 0.00
5:53 am 05:53 Cloudy 62 16.7 58 14.4 86 86 S 12 19 29.85 1011 10 16 0.00 0.00
6:50 am 06:50 Cloudy 63 17 57 14 83 83 S 20 31 29.88 1012 9 14 0.00 0.00
6:53 am 06:53 Cloudy 63 17.2 58 14.4 84 84 S 20 31 29.85 1011 9 14 0.00 0.00
7:53 am 07:53 Cloudy with Mist and Fog 63 17.2 59 15 87 87 S 22 35 29.87 1012 6 10 0.00 0.00
8:53 am 08:53 Cloudy with Haze 65 18.3 59 15 81 81 S 14 22 29.90 1012 6 10 0.00 0.00
9:01 am 09:01 Cloudy 65 18.3 59 15 81 81 S 16 26 29.91 1013 7 11 0.00 0.00
9:53 am 09:53 Mostly Cloudy 68 20 59 15 73 73 SSW 20 31 29.91 1013 8 13 0.00 0.00
10:13 am 10:13 Partly Cloudy 68 20 59 15 73 73 S 18 30 29.88 1012 8 13 0.00 0.00
10:53 am 10:53 Mostly Sunny 71 21.7 59 15 66 66 S 22 35 29.90 1012 9 14 0.00 0.00
11:53 am 11:53 Sunny 73 22.8 58 14.4 59 59 SSW 20 31 29.88 1012 10 16 0.00 0.00
12:53 pm 12:53 Sunny 75 23.9 58 14.4 55 55 SSW 17 28 29.85 1011 10 16 0.00 0.00
1:53 pm 13:53 Sunny 77 25 55 12.8 47 47 S 14 22 29.80 1009 10 16 0.00 0.00
2:53 pm 14:53 Sunny with Light Rain 78 25.6 56 13.3 47 47 S 17 28 29.79 1009 10 16 0.00 0.03
3:53 pm 15:53 Sunny with Light Rain 78 25.6 54 12.2 43 43 S 20 31 29.78 1008 10 16 0.00 0.03
4:53 pm 16:53 Sunny 76 24.4 57 13.9 52 52 S 15 24 29.78 1009 10 16 0.00 0.03
5:53 pm 17:53 Sunny with Light Rain 73 22.8 58 14.4 59 59 SSE 18 30 29.78 1009 10 16 0.00 0.03
6:53 pm 18:53 Clear 70 21.1 59 15 68 68 S 18 30 29.79 1009 10 16 0.00 0.03
7:53 pm 19:53 Clear 67 19.4 60 15.6 79 79 S 16 26 29.83 1010 10 16 0.00 0.00
8:53 pm 20:53 Clear 66 18.9 60 15.6 81 81 S 14 22 29.84 1011 8 13 0.00 0.00
9:53 pm 21:53 Hazy 65 18.3 60 15.6 84 84 S 13 20 29.85 1011 6 10 0.00 0.00
10:13 pm 22:13 Mostly Cloudy with Haze 65 18.3 60 15.6 84 84 S 12 19 29.88 1012 6 10 0.00 0.00
10:25 pm 22:25 Hazy 65 18.3 60 15.6 84 84 S 13 20 29.85 1011 6 10 0.00 0.00
10:53 pm 22:53 Hazy 65 18.3 60 15.6 84 84 S 13 20 29.84 1010 6 10 0.00 0.00
11:14 pm 23:14 Mostly Cloudy with Haze 66 18.9 60 15.6 81 81 S 12 19 29.83 1010 6 10 0.00 0.00

Powered by AerisWeather